Weather History for Blue Canyon, CA

Change the Weather History Date:

Monday, April 1, 2013

  Actual Average Record
Temperature  
Mean Temperature 39 °F -  
Max Temperature 44 °F 48 °F 70 °F (1966)
Min Temperature 35 °F 33 °F 19 °F (1976)
Degree Days  
Heating Degree Days 26    
Moisture  
Dew Point 37 °F    
Average Humidity 92    
Maximum Humidity 100    
Minimum Humidity 80    
Precipitation  
Precipitation 0.13 in - - ()
Sea Level Pressure  
Sea Level Pressure 30.12 in    
Wind  
Wind Speed 3 mph (South)    
Max Wind Speed 9 mph    
Max Gust Speed -    
Visibility 8 miles    
Events Rain    
Averages and records for this station are not official NWS values.
T = Trace of Precipitation, MM = Missing Value Source: NWS Daily Summary

Daily Weather History Graph

Daily Weather History Graph

Search for Another Location

Airport:

Trip Planner

Search our weather history database for the weather conditions in past years. The results will help you decide how hot, cold, wet, or windy it might be!

Date:

Astronomy

Apr. 01, 2013 Rise Set
Actual Time 6:46 AM PDT 7:27 PM PDT
Civil Twilight 6:19 AM PDT 7:54 PM PDT
Nautical Twilight 5:47 AM PDT 8:26 PM PDT
Astronomical Twilight 5:15 AM PDT 8:59 PM PDT
Moon 12:38 AM PDT (4/1) 10:40 AM PDT (4/1)
Length of Visible Light 13h 34m
Length of Day
12h 40m
Waning Gibbous, 66% of the Moon is Illuminated
Apr 1
Waning Gibbous
Apr 2
Last Quarter
Apr 10
New
Apr 18
First Quarter
Apr 25
Full

Hourly Weather History & Observations

Time (PDT) Temp. Windchill Dew Point Humidity Pressure Visibility Wind Dir Wind Speed Gust Speed Precip Events Conditions
12:01 AM 35.6 °F - 35.6 °F 100% 30.08 in 0.8 mi Calm Calm - 0.00 in   Overcast
12:28 AM 35.6 °F 32.8 °F 35.6 °F 100% 30.07 in 1.0 mi ESE 3.5 mph - 0.01 in Rain Light Rain
12:32 AM 35.6 °F - 35.6 °F 100% 30.07 in 2.0 mi Calm Calm - 0.01 in   Overcast
12:40 AM 35.6 °F - 35.6 °F 100% 30.07 in 9.0 mi Calm Calm - 0.01 in   Overcast
12:52 AM 36.0 °F - 36.0 °F 100% 30.05 in 10.0 mi Calm Calm - 0.01 in   Overcast
1:18 AM 35.6 °F 32.8 °F 35.6 °F 100% 30.07 in 10.0 mi ESE 3.5 mph - N/A   Overcast
1:52 AM 37.0 °F 33.3 °F 35.1 °F 93% 30.04 in 10.0 mi SSE 4.6 mph - N/A   Overcast
2:14 AM 37.4 °F 34.9 °F 35.6 °F 93% 30.08 in 10.0 mi SSE 3.5 mph - N/A   Overcast
2:43 AM 37.4 °F 32.1 °F 35.6 °F 93% 30.08 in 10.0 mi SSE 6.9 mph - N/A   Overcast
2:52 AM 37.0 °F 31.6 °F 36.0 °F 96% 30.05 in 10.0 mi South 6.9 mph - N/A   Overcast
3:50 AM 37.4 °F 33.8 °F 35.6 °F 93% 30.09 in 8.0 mi SSE 4.6 mph - 0.00 in   Overcast
3:52 AM 37.0 °F 33.3 °F 36.0 °F 96% 30.05 in 7.0 mi SSE 4.6 mph - 0.00 in   Overcast
4:28 AM 37.4 °F - 35.6 °F 93% 30.09 in 1.8 mi Calm Calm - 0.00 in   Overcast
4:34 AM 37.4 °F - 35.6 °F 93% 30.09 in 0.8 mi Calm Calm - 0.00 in   Mist
4:49 AM 37.4 °F 34.9 °F 35.6 °F 93% 30.09 in 1.8 mi South 3.5 mph - 0.00 in   Overcast
4:52 AM 37.0 °F 34.5 °F 36.0 °F 96% 30.04 in 3.0 mi South 3.5 mph - 0.00 in   Overcast
5:02 AM 37.4 °F - 35.6 °F 93% 30.09 in 1.8 mi Calm Calm - N/A   Overcast
5:12 AM 37.4 °F - 35.6 °F 93% 30.09 in 1.0 mi Calm Calm - N/A   Mist
5:33 AM 37.4 °F 34.9 °F 35.6 °F 93% 30.10 in 0.8 mi SSE 3.5 mph - 0.01 in Rain Light Rain
5:52 AM 37.0 °F 33.3 °F 36.0 °F 96% 30.05 in 1.2 mi SSE 4.6 mph - 0.03 in Rain Light Rain
5:57 AM 35.6 °F 30.7 °F 35.6 °F 100% 30.10 in 2.0 mi SSE 5.8 mph - 0.00 in Rain Light Rain
6:10 AM 35.6 °F 32.8 °F 35.6 °F 100% 30.10 in 8.0 mi SSE 3.5 mph - 0.00 in   Overcast
6:16 AM 35.6 °F - 35.6 °F 100% 30.10 in 9.0 mi Calm Calm - 0.00 in Rain Light Rain
6:44 AM 35.6 °F - 35.6 °F 100% 30.10 in 10.0 mi Calm Calm - 0.02 in Rain Light Rain
6:52 AM 36.0 °F - 36.0 °F 100% 30.08 in 7.0 mi Calm Calm - 0.02 in   Overcast
7:21 AM 35.6 °F - 35.6 °F 100% 30.11 in 2.5 mi Calm Calm - N/A   Overcast
7:43 AM 35.6 °F - 35.6 °F 100% 30.12 in 5.0 mi Calm Calm - N/A   Overcast
7:50 AM 35.6 °F - 35.6 °F 100% 30.12 in 10.0 mi Calm Calm - N/A   Overcast
7:52 AM 36.0 °F - 36.0 °F 100% 30.11 in 10.0 mi Calm Calm - N/A   Overcast
8:52 AM 37.9 °F 35.5 °F 37.0 °F 97% 30.12 in 10.0 mi Variable 3.5 mph - N/A   Overcast
9:52 AM 39.0 °F 32.8 °F 37.0 °F 93% 30.13 in 10.0 mi SSE 9.2 mph - N/A   Overcast
10:36 AM 39.2 °F 34.2 °F 37.4 °F 93% 30.16 in 10.0 mi South 6.9 mph - 0.00 in   Overcast
10:44 AM 39.2 °F 35.9 °F 37.4 °F 93% 30.16 in 9.0 mi SSW 4.6 mph - 0.00 in Rain Light Rain
10:52 AM 39.0 °F 34.0 °F 37.0 °F 93% 30.15 in 7.0 mi South 6.9 mph - 0.00 in Rain Light Rain
11:23 AM 39.2 °F 35.9 °F 37.4 °F 93% 30.17 in 10.0 mi SSW 4.6 mph - 0.00 in   Overcast
11:52 AM 39.9 °F 36.7 °F 37.9 °F 93% 30.15 in 10.0 mi West 4.6 mph - 0.01 in   Overcast
12:22 PM 41.0 °F 39.0 °F 37.4 °F 87% 30.17 in 8.0 mi South 3.5 mph - 0.00 in Rain Light Rain
12:32 PM 42.8 °F 40.1 °F 37.4 °F 81% 30.17 in 10.0 mi South 4.6 mph - 0.00 in   Mostly Cloudy
12:42 PM 41.0 °F 36.4 °F 37.4 °F 87% 30.17 in 9.0 mi SW 6.9 mph - 0.00 in Rain Light Rain
12:48 PM 41.0 °F 38.0 °F 37.4 °F 87% 30.17 in 10.0 mi SSW 4.6 mph - 0.00 in Rain Light Rain
12:52 PM 41.0 °F 37.1 °F 37.9 °F 89% 30.14 in 10.0 mi SSW 5.8 mph - 0.00 in   Mostly Cloudy
1:10 PM 42.8 °F 38.6 °F 37.4 °F 81% 30.17 in 10.0 mi Variable 6.9 mph - N/A   Mostly Cloudy
1:14 PM 42.8 °F 40.1 °F 37.4 °F 81% 30.17 in 10.0 mi SSW 4.6 mph - N/A   Mostly Cloudy
1:52 PM 42.1 °F 38.4 °F 37.9 °F 85% 30.13 in 10.0 mi South 5.8 mph - 0.01 in   Overcast
1:58 PM 41.0 °F 37.1 °F 37.4 °F 87% 30.17 in 4.0 mi Variable 5.8 mph - 0.00 in Rain Rain
2:05 PM 41.0 °F 38.0 °F 37.4 °F 87% 30.17 in 3.0 mi NNW 4.6 mph - 0.02 in Rain Light Rain
2:29 PM 41.0 °F - 39.2 °F 93% 30.17 in 8.0 mi Calm Calm - 0.03 in Rain Light Rain
2:52 PM 43.0 °F 38.8 °F 37.0 °F 80% 30.13 in 10.0 mi South 6.9 mph - 0.03 in   Overcast
3:12 PM 42.8 °F 39.3 °F 37.4 °F 81% 30.16 in 10.0 mi South 5.8 mph - N/A   Mostly Cloudy
3:39 PM 42.8 °F 41.1 °F 37.4 °F 81% 30.16 in 10.0 mi WNW 3.5 mph - N/A   Mostly Cloudy
3:48 PM 42.8 °F 39.3 °F 37.4 °F 81% 30.16 in 10.0 mi NNW 5.8 mph - N/A   Overcast
3:52 PM 42.1 °F 39.2 °F 37.9 °F 85% 30.13 in 10.0 mi West 4.6 mph - N/A   Overcast
4:17 PM 39.2 °F 35.9 °F 39.2 °F 100% 30.16 in 8.0 mi West 4.6 mph - 0.00 in Rain Light Rain
4:37 PM 41.0 °F 39.0 °F 37.4 °F 87% 30.16 in 9.0 mi SSW 3.5 mph - 0.01 in Rain Light Rain
4:52 PM 41.0 °F 38.0 °F 37.9 °F 89% 30.14 in 10.0 mi SSW 4.6 mph - 0.01 in Rain Light Rain
5:03 PM 41.0 °F 38.0 °F 37.4 °F 87% 30.16 in 10.0 mi SSW 4.6 mph - 0.00 in   Overcast
5:14 PM 41.0 °F 38.0 °F 37.4 °F 87% 30.16 in 9.0 mi WSW 4.6 mph - 0.00 in Rain Light Rain
5:39 PM 41.0 °F - 39.2 °F 93% 30.16 in 10.0 mi Calm Calm - 0.01 in   Overcast
5:52 PM 41.0 °F - 39.0 °F 93% 30.14 in 10.0 mi Calm Calm - 0.01 in   Overcast
6:18 PM 41.0 °F - 39.2 °F 93% 30.17 in 10.0 mi Calm Calm - N/A   Overcast
6:49 PM 41.0 °F - 39.2 °F 93% 30.17 in 10.0 mi Calm Calm - N/A   Overcast
6:52 PM 41.0 °F - 39.0 °F 93% 30.14 in 10.0 mi Calm Calm - N/A   Overcast
7:52 PM 39.0 °F 36.8 °F 36.0 °F 89% 30.15 in 10.0 mi NNE 3.5 mph - N/A   Clear
8:52 PM 39.9 °F 36.7 °F 36.0 °F 86% 30.15 in 10.0 mi NE 4.6 mph - N/A   Clear
9:52 PM 39.9 °F 37.8 °F 35.1 °F 83% 30.16 in 10.0 mi NNE 3.5 mph - N/A   Clear
10:52 PM 39.9 °F 36.7 °F 35.1 °F 83% 30.14 in 10.0 mi NE 4.6 mph - N/A   Clear
11:52 PM 39.0 °F 34.8 °F 34.0 °F 82% 30.14 in 10.0 mi NE 5.8 mph - N/A   Clear